Terminal Aerodrome Forecast
Issued by NWS Blacksburg, VA

Home | Current Version | Previous Version | Text Only | Print | Product List | Glossary On
Versions: 1 2 3 4 5 6 7 8 9 10 11 12 13 14 15 16 17 18 19 20 21 22 23 24 25 26 27 28 29 30 31 32
000
FTUS41 KRNK 310520
TAFLYH
TAF
KLYH 310520Z 3106/0106 18006KT P6SM SCT040
     FM310800 19004KT 4SM BR BKN050
     FM311200 19003KT 4SM BR OVC012
     FM311500 21010KT P6SM SCT050 BKN120
     FM010000 20004KT P6SM OVC100=

USA.gov is the U.S. government's official web portal to all federal, state and local government web resources and services.